Location: Avebury
(53.1487°N, 106.9774°W)
Time: 11:45:10
(UTC+00:00)

Envisat - Pass Details

Date: 18 January 2022
Orbit: 764 x 765 km, 98.2° (Epoch: 22 May)

Event Time Altitude Azimuth Distance (km) Brightness Sun altitude
Rises 12:33:09 0° 13° (NNE) 3,244 6.4 -23.0°
Reaches altitude 10° 12:35:28 10° 12° (NNE) 2,314 5.6 -22.6°
Maximum altitude 12:40:33 73° 289° (WNW) 805 2.8 -21.9°
Drops below altitude 10° 12:45:35 10° 205° (SSW) 2,298 5.3 -21.1°
Sets 12:47:53 0° 204° (SSW) 3,220 6.1 -20.8°
